Location: Caltech
(34.1382°N, 118.1253°W)
Time: 20:07:22
(UTC-07:00)

ADEOS II - Visible Passes

Search period start: 23 June 2018 00:00
Search period end: 03 July 2018 00:00
Orbit: 800 x 801 km, 98.4° (Epoch: 23 June)

Date Brightness Start Highest point End Pass type
(mag) Time Alt. Az. Time Alt. Az. Time Alt. Az.
23 Jun 4.5 02:44:13 10° ENE 02:46:58 14° E 02:49:41 10° SE visible
23 Jun 2.3 04:21:49 10° N 04:26:57 57° WNW 04:30:59 16° SSW visible
24 Jun 2.1 03:55:16 10° NNE 04:00:33 79° ESE 04:04:10 21° S visible
25 Jun 3.0 03:29:04 10° NNE 03:34:03 42° E 03:37:21 20° SSE visible
25 Jun 3.6 05:09:40 10° NNW 05:13:24 20° WNW 05:17:08 10° WSW visible
26 Jun 3.9 03:03:19 10° NE 03:07:27 23° E 03:10:32 14° SE visible
26 Jun 2.9 04:42:25 10° N 04:47:10 35° WNW 04:51:29 12° SW visible
27 Jun 4.6 02:38:44 10° ENE 02:40:46 12° E 02:42:48 10° ESE visible
27 Jun 2.1 04:15:38 10° N 04:20:51 65° WNW 04:24:40 18° SSW visible
28 Jun 2.3 03:49:10 10° NNE 03:54:25 69° ESE 03:57:51 22° S visible
29 Jun 3.2 03:23:01 10° NNE 03:27:54 37° E 03:31:02 19° SSE visible
29 Jun 3.5 05:03:18 10° NNW 05:07:19 23° WNW 05:11:20 10° WSW visible
30 Jun 4.1 02:57:26 10° NE 03:01:16 20° E 03:04:12 13° SE visible
30 Jun 2.7 04:36:11 10° N 04:41:04 40° WNW 04:45:09 14° SW visible
01 Jul 4.7 02:33:49 10° E 02:34:34 10° E 02:35:18 10° E visible
01 Jul 2.1 04:09:27 10° N 04:14:43 74° WNW 04:18:19 21° SSW visible
02 Jul 2.5 03:43:03 10° NNE 03:48:16 60° E 03:51:30 23° S visible
